sat.trackr.live / text

‹ back to catalog

KUIPER-00562

NORAD 69270 · 2026-118D

PAYLOAD ACTIVE UNKNOWN

§ Identity

Operator
Country
US
Launch date
2026-05-29
Launch site
AFETR
Launch vehicle
Mass (kg)
RCS (m²)

External: N2YO · Heavens-Above · Gunter

§ Orbital elements

Epoch: 2026-09-20T05:09:05.778144Z

Period
97.31 min
Inclination
51.9041°
Eccentricity
0.0001411
Mean motion
14.79832570 rev/d
Perigee alt
628.9 km
Apogee alt
630.8 km
Semi-major
7,008.0 km
B*
6.7173e-3
RAAN
330.3968°
Arg perigee
59.6133°
Mean anomaly
300.4968°
Rev number
1,837

§ Raw data

KUIPER-005621 69270U 26118D   26263.21465021  .00051256  00000+0  67173-2 0  99962 69270  51.9041 330.3968 0001411  59.6133 300.4968 14.79832570 18377

JSON: /api/v1/satellites/69270 · /tle

For live sub-satellite position, see the globe view (requires WebGL).

§ Visibility from observer

Set your observer location to see the next 7 days of passes ≥ 10°. The values pass through the URL so the page stays shareable.

No JS? Fill the form by hand. The geolocation button needs JavaScript.